Regional Weather Roundup
Issued by NWS Green Bay, WI

Home | Current Version | Previous Version | Text Only | Print | Product List | Glossary On
Versions: 1 2 3 4 5 6 7 8 9 10 11 12 13 14 15 16 17 18 19 20 21 22 23 24 25 26 27 28 29 30 31 32 33 34 35 36 37 38 39 40 41 42 43 44 45 46 47 48 49 50
000
ASUS43 KGRB 270910
RWRGRB

NORTH-CENTRAL AND NORTHEAST WISCONSIN REGIONAL WEATHER ROUNDUP
NATIONAL WEATHER SERVICE GREEN BAY WI
400 AM CDT WED AUG 27 2014

WIZ005-009-010>012-018-019-271000-
NORTH CENTRAL WISCONSIN

CITY           SKY/WX    TMP DP  RH WIND       PRES   REMARKS
IRONWOOD       NOT AVBL
MANITOWISH WTR DRIZZLE   53  53 100 CALM      30.18S
ARBOR VITAE    DRIZZLE   57  55  94 CALM      30.18S
EAGLE RIVER    LGT RAIN  53  53 100 CALM      30.17F
LAND O LAKES   LGT RAIN  53  52  99 CALM      30.19S
RHINELANDER    LGT RAIN  55  54  96 CALM      30.18F
PHILLIPS       CLOUDY    55  54  97 CALM      30.17R
ANTIGO         DRIZZLE   55  54  95 CALM      30.19S
TOMAHAWK       LGT RAIN  54  52  94 CALM      30.18F
MERRILL        RAIN      57  56  97 CALM      30.18F
$$

WIZ013-073-271000-
NORTHEAST WISCONSIN

CITY           SKY/WX    TMP DP  RH WIND       PRES   REMARKS
IRON MOUNTAIN  LGT RAIN  54  50  86 NW3       30.17R
MARINETTE      MOCLDY    55  50  82 CALM      30.16R
OCONTO         MOCLDY    56  55  95 MISG      30.16F
$$

WIZ017-030-035>037-045-271000-
CENTRAL WISCONSIN

CITY           SKY/WX    TMP DP  RH WIND       PRES   REMARKS
MEDFORD        LGT RAIN  56  55  96 CALM      30.18F
WAUSAU         LGT RAIN  59  56  89 NW3       30.17S
MOSINEE        CLOUDY    57  55  94 CALM      30.19S
MARSHFIELD     LGT RAIN  60  54  80 N5        30.18S
WISC RAPIDS    CLOUDY    60  55  83 N5        30.18F
STEVENS POINT  CLOUDY    56  54  92 CALM      30.18S
WAUPACA        CLOUDY    61  56  85 CALM      30.17F
SHAWANO        CLOUDY    60  55  81 CALM      30.17F
CLINTONVILLE   CLOUDY    59  54  82 N3        30.16F
$$

WIZ038-039-048-051-271000-
FOX VALLEY

CITY           SKY/WX    TMP DP  RH WIND       PRES   REMARKS
NWS GREEN BAY  CLOUDY    60  55  83 N6        30.16S
APPLETON       CLOUDY    59  52  77 N9        30.17S
OSHKOSH        CLOUDY    63  57  81 VRB3      30.16R
FOND DU LAC    CLOUDY    62  56  80 N6        30.16R
$$

WIZ022-050-052-271000-
EAST CENTRAL WISCONSIN

CITY           SKY/WX    TMP DP  RH WIND       PRES   REMARKS
STURGEON BAY   MOCLDY    59  52  77 NE3       30.17S
MANITOWOC      CLOUDY    61  59  93 N8        30.15S
SHEBOYGAN      CLOUDY    61  57  87 N6        30.14S
$$

LMZ563-521-522-541>543-271000-
LAKESHORE

STATION/POSITION TIME  TEMP    WIND        PRES    VSBY  WAVE
                       AIR SEA DIR/SP/G                  HT/PER
                 (UTC) (F)     (DEG/KT/KT) (MB)    (MI)  (FT/S)
SHEBOYGAN LKSHOR 0900   64 66  340/ 10/ 11 1020.8R
KEWAUNEE LKSHORE 0900   63     360/  7/ 12 1020.1R
ALGOMA MARINA    0800          350/  6/  8   N/A
NORTHPORT PIER   0900   63      40/  4/  6 1021.0S
N MID LAKE BUOY  0900   62 65  350/  8/ 10 1020.9R         1/ 4
S GREEN BAY BUOY 0900   65     VRB 10      1022.2R
SISTER BAY LKSHO 0900   59        CALM       N/A
CHAMBERS ISLAND  0900   63     340/  7/ 10 1021.3S
MENOMINEE LKSHOR 0900   60     290/  4/  5 1022.1R
$$



USA.gov is the U.S. government's official web portal to all federal, state and local government web resources and services.